Location: Corte Bragagnani
(45.3000°N, 11.1000°E)
Time: 23:17:56
(UTC+00:00)

STARLINK-1192 - Pass Details

Date: 09 April 2020
Orbit: 549 x 550 km, 53.0° (Epoch: 27 May)

Event Time Altitude Azimuth Distance (km) Brightness Sun altitude
Rises 19:50:55 0° 302° (WNW) 2,724 8.8 -19.6°
Reaches altitude 10° 19:53:10 10° 305° (NW) 1,828 7.5 -19.9°
Maximum altitude 19:57:19 71° 29° (NNE) 584 3.6 -20.5°
Enters shadow 19:57:59 58° 86° (E) 647 3.6 -20.6°
